GW4745 Weather Reports


time (UTC)temp
C
wind
direction
speed
KPH
gust
KPH
rain 1hr
cm
rain 24hr
cm
rain mn
cm
humidity
%
barometer
mb
20260503054613 6 0 0.0 0.0 0.00 0.00 0.00 66 1016.2
20260503053058 7 0 0.0 1.6 0.00 0.00 0.00 66 1016.1
20260503051607 6 150 0.0 3.2 0.00 0.00 0.00 66 1016.3
20260503050058 6 0 0.0 0.0 0.00 0.00 0.00 65 1016.3
20260503044607 7 0 0.0 0.0 0.00 0.00 0.00 66 1016.1
20260503043104 7 0 0.0 0.0 0.00 0.00 0.00 61 1016.1
20260503041603 8 0 0.0 3.2 0.00 0.00 0.00 58 1015.9
20260503040059 8 150 0.0 3.2 0.00 0.00 0.00 55 1015.8
20260503034604 8 150 0.0 3.2 0.00 0.00 0.00 55 1015.8
20260503033104 9 150 0.0 3.2 0.00 0.00 0.00 54 1015.7
20260503031605 9 150 1.6 6.4 0.00 0.00 0.00 53 1015.5
20260503030104 9 0 1.6 4.8 0.00 0.00 0.00 54 1015.4
20260503024559 10 150 1.6 6.4 0.00 0.00 0.00 52 1015.4
20260503023108 9 150 0.0 1.6 0.00 0.00 0.00 54 1015.3
20260503021600 10 0 0.0 1.6 0.00 0.00 0.00 51 1015.2
20260503020059 11 150 0.0 3.2 0.00 0.00 0.00 49 1015.0
20260503014603 11 150 0.0 3.2 0.00 0.00 0.00 48 1014.9
20260503013058 11 150 0.0 6.4 0.00 0.00 0.00 48 1014.5
20260503011609 12 150 3.2 11.3 0.00 0.00 0.00 46 1014.3
20260503010100 12 150 1.6 9.7 0.00 0.00 0.00 45 1014.1
20260503004559 13 150 3.2 17.7 0.00 0.00 0.00 44 1013.9
20260503003100 13 150 8.0 17.7 0.00 0.00 0.00 43 1013.5
20260503001618 13 150 4.8 14.5 0.00 0.00 0.00 43 1013.2
20260503000122 13 150 4.8 8.0 0.00 0.00 0.00 44 1012.8
20260502234606 14 150 4.8 12.9 0.00 0.00 0.00 43 1012.7
20260502233059 14 150 6.4 14.5 0.00 0.00 0.00 41 1012.5
20260502231606 14 150 12.9 22.5 0.00 0.00 0.00 40 1012.3
20260502224601 15 150 8.0 16.1 0.00 0.00 0.00 40 1011.8
20260502223057 16 150 3.2 9.7 0.00 0.00 0.00 46 1011.9
20260502221600 16 150 0.0 4.8 0.00 0.00 0.00 46 1011.5
20260502220100 16 0 1.6 4.8 0.00 0.00 0.00 42 1011.5
20260502214600 16 150 1.6 16.1 0.00 0.00 0.00 43 1011.1
20260502213101 17 150 6.4 17.7 0.00 0.00 0.00 40 1010.9
20260502211603 17 150 4.8 9.7 0.00 0.00 0.00 41 1010.9
20260502210110 17 150 3.2 6.4 0.00 0.00 0.00 40 1011.0
20260502204559 17 150 3.2 9.7 0.00 0.00 0.00 40 1010.9
20260502203058 16 150 3.2 4.8 0.00 0.00 0.00 41 1011.0
20260502201601 16 150 1.6 12.9 0.00 0.00 0.00 41 1011.3
20260502200105 16 150 8.0 22.5 0.00 0.00 0.00 40 1011.3
20260502194604 15 150 4.8 16.1 0.00 0.00 0.00 42 1011.6
20260502193059 16 150 3.2 9.7 0.00 0.00 0.00 43 1011.8
20260502191607 15 150 1.6 17.7 0.00 0.00 0.00 43 1011.9
20260502190100 15 150 4.8 11.3 0.00 0.00 0.00 43 1012.0
20260502184605 15 150 1.6 12.9 0.00 0.00 0.00 43 1012.4
20260502183100 14 150 3.2 11.3 0.00 0.00 0.00 43 1012.4
20260502181559 14 150 3.2 14.5 0.00 0.00 0.00 44 1012.5
20260502163103 11 150 11.3 19.3 0.00 0.00 0.00 50 1014.0
20260502161607 11 150 8.0 16.1 0.00 0.00 0.00 51 1014.3
20260502151631 11 150 6.4 16.1 0.00 0.00 0.00 54 1014.3
20260502150108 11 150 4.8 12.9 0.00 0.00 0.00 56 1014.4
20260502123106 11 150 1.6 6.4 0.00 0.00 0.00 75 1013.4
20260502121559 11 150 3.2 6.4 0.00 0.00 0.00 74 1013.6
20260502114613 11 150 3.2 6.4 0.00 0.00 0.00 76 1013.3
20260502113104 10 150 0.0 3.2 0.00 0.00 0.00 80 1013.2
20260502111603 10 150 1.6 4.8 0.00 0.00 0.00 80 1013.0
20260502110100 10 150 0.0 3.2 0.00 0.00 0.00 81 1013.0
20260502104558 10 0 0.0 3.2 0.00 0.00 0.00 82 1012.8
20260502103117 10 0 0.0 3.2 0.00 0.00 0.00 84 1012.7
20260502101613 10 150 1.6 3.2 0.00 0.00 0.00 84 1012.6
20260502100134 11 0 0.0 3.2 0.00 0.00 0.00 81 1012.8
20260502090128 11 0 0.0 0.0 0.00 0.00 0.00 87 1013.3
20260502070100 11 0 0.0 1.6 0.00 0.00 0.00 87 1012.2
20260502064614 11 150 0.0 8.0 0.00 0.00 0.00 87 1012.3